Location: Spaichingen
(48.0400°N, 8.4300°E)
Time: 15:36:57
(UTC+02:00)

Tiangong 2 - Pass Details

Date: 22 May 2019
Orbit: 376 x 388 km, 42.8° (Epoch: 25 June)

Event Time Altitude Azimuth Distance (km) Brightness Sun altitude
Rises 22:33:30 0° 246° (WSW) 2,230 5.2 -11.7°
Reaches altitude 10° 22:35:43 10° 235° (SW) 1,379 3.9 -11.9°
Maximum altitude 22:38:27 28° 173° (S) 732 2.0 -12.2°
Enters shadow 22:39:25 23° 139° (SE) 842 2.1 -12.3°
